This demonstration page uses our WeatherBlox Daily Observations layout. Learn more.

Left ArrowRight Arrow

39.12711, -84.51439

Hourly Observations for January 17, 2022

Temp ( °F °C ) Dew Point ( °F °C ) Humidity (%) Winds ( mph kmh ) Pressure ( in mb ) Visibility ( mi km ) Precip ( " mm )
12:53 am 00:53 Mostly Cloudy 30 -1.1 22 -5.6 72 72 NW 8 13 29.56 1001 10 16 0.01 0.25
1:53 am 01:53 Clear 28 -2.2 20 -6.7 72 72 VRB 7 11 29.55 1001 10 16 0.00 0.00
2:53 am 02:53 Clear 28 -2.2 19 -7.2 69 69 WNW 14 22 29.56 1001 10 16 0.00 0.00
3:53 am 03:53 Cloudy 28 -2.2 18 -7.8 66 66 WNW 12 19 29.59 1002 10 16 0.00 0.00
4:53 am 04:53 Cloudy 28 -2.2 17 -8.3 63 63 WNW 7 11 29.61 1003 10 16 0.00 0.00
5:53 am 05:53 Cloudy 28 -2.2 16 -8.9 60 60 WNW 7 11 29.65 1004 10 16 0.00 0.00
6:53 am 06:53 Cloudy 27 -2.8 18 -7.8 69 69 W 15 24 29.69 1005 8 13 0.00 0.00
7:53 am 07:53 Cloudy 27 -2.8 19 -7.2 72 72 W 12 19 29.71 1006 10 16 0.00 0.00
8:53 am 08:53 Cloudy 27 -2.8 21 -6.1 78 78 W 10 17 29.73 1007 7 11 0.00 0.00
9:53 am 09:53 Cloudy 28 -2.2 23 -5 81 81 W 13 20 29.76 1008 7 11 0.00 0.00
10:53 am 10:53 Cloudy with Light Snow 28 -2.2 23 -5 81 81 W 15 24 29.79 1009 5 8 0.00 0.00
11:53 am 11:53 Cloudy 29 -1.7 23 -5 78 78 W 15 24 29.80 1009 7 11 0.00 0.00
12:53 pm 12:53 Cloudy 28 -2.2 21 -6.1 75 75 W 15 24 29.81 1010 8 13 0.00 0.00
1:53 pm 13:53 Cloudy with Mist and Fog 28 -2.2 21 -6.1 75 75 W 16 26 29.82 1010 6 10 0.00 0.00
2:53 pm 14:53 Cloudy with Mist and Fog 28 -2.2 22 -5.6 78 78 W 13 20 29.85 1011 6 10 0.00 0.00
3:53 pm 15:53 Cloudy with Mist and Fog 28 -2.2 22 -5.6 78 78 W 12 19 29.88 1012 6 10 0.00 0.00
4:53 pm 16:53 Cloudy with Mist and Fog 28 -2.2 23 -5 81 81 W 12 19 29.91 1013 6 10 0.00 0.00
5:53 pm 17:53 Cloudy with Mist and Fog 28 -2.2 22 -5.6 78 78 W 13 20 29.93 1014 10 16 0.00 0.00
6:53 pm 18:53 Cloudy with Mist and Fog 29 -1.7 22 -5.6 75 75 W 13 20 29.97 1015 10 16 0.00 0.00
7:53 pm 19:53 Cloudy with Mist and Fog 29 -1.7 23 -5 78 78 W 12 19 29.98 1015 10 16 0.00 0.00
8:53 pm 20:53 Cloudy with Mist and Fog 29 -1.7 21 -6.1 72 72 W 14 22 30.01 1016 10 16 0.00 0.00
9:53 pm 21:53 Cloudy 29 -1.7 21 -6.1 72 72 W 10 17 30.02 1017 10 16 0.00 0.00
10:53 pm 22:53 Cloudy 29 -1.7 20 -6.7 69 69 W 12 19 30.05 1018 10 16 0.00 0.00
11:53 pm 23:53 Cloudy 29 -1.7 21 -6.1 72 72 WNW 3 6 30.06 1018 10 16 0.00 0.00

Powered by AerisWeather